Presure
217 222 221 222 218 223 219 224 221 233 220 226 215 235 213 217 221 221 218 221 207 205 231 226 216 229 270 248 251 200 215 229 237 242 242 241 237 206 240 219 209 226 227 225 223 231 237 235 252 252 230 219 214 252
236 223 223 237 240 223 229 237 228 230 213 196 217 210 221 235 239 195 194 220 220 217 242 221 261 263 229 221 221 237 214 238 238 249 232 242 229 226 237 214 232 244 255 254 257 236 269 271 267 245 250 274 268 266
216 222 223 223 227 228 230 220 196 197 247 198 195 152 227 212 203 239 228 212 234 231 208 260 258 250 225 206 215 230 236 241 250 251 252 257 225 249 257 264 260 260 260 259 257 249 255 252 252 250 243 237 232 229
232 230 231 238 235 232 231 226 239 217 212 209 201 219 230 224 208 223 233 222 204 223 246 246 237 224 238 240 247 251 254 225 250 255 225 223 257 256 253 247 240 234 235 230 242 260 244 301 308 309 308 353 350 343
236 237 208 205 201 236 239 234 198 221 228 229 212 203 223 210 224 225 235 254 243 247 242 232 238 242 249 254 255 254 250 249 246 242 238 230 228 239 301 337 326 348 344 354 382 378 367 344 334 323 338 343 338 328
236 204 196 233 210 219 231 238 197 227 214 226 224 243 261 209 214 202 237 232 234 240 247 252 252 249 249 240 237 232 229 226 238 262 279 380 370 362 350 344 328 329 317 319 318 330 349 362 349 337 330 323 315 313
221 208 203 203 213 208 208 211 217 245 244 207 241 222 245 238 239 243 244 248 254 254 253 254 240 226 223 222 251 253 250 261 285 346 370 362 357 339 328 318 315 306 306 308 330 320 323 372 353 339 325 313 311 330
191 198 212 218 219 226 241 229 231 237 230 241 242 233 232 237 246 247 244 249 250 235 226 223 220 236 246 242 246 266 285 335 343 369 355 337 317 300 302 301 299 306 317 327 325 322 310 304 364 359 360 335 336 324
235 212 209 216 219 240 234 233 232 231 231 229 237 241 241 238 247 244 233 220 213 218 236 237 258 250 241 152 264 264 331 357 370 338 305 307 359 354 350 346 346 339 326 319 321 319 305 292 290 329 351 336 320 307
241 234 231 231 231 229 230 230 238 244 240 237 237 246 235 229 206 214 241 223 217 253 238 239 245 243 303 237 321 331 387 361 331 318 412 406 391 363 365 361 353 342 336 327 315 322 319 311 306 299 296 299 305 320
232 232 236 238 240 240 238 230 231 238 238 230 228 221 209 210 221 221 234 236 239 249 242 242 250 306 316 339 349 377 346 321 368 345 324 307 292 314 310 371 360 353 347 340 335 326 334 328 321 320 318 311 310 315
234 236 235 234 231 231 231 229 225 202 219 213 219 225 227 232 232 232 232 254 315 303 229 271 321 350 376 377 365 340 368 362 339 320 306 328 320 324 305 358 366 359 353 350 344 340 334 327 333 321 311 306 296 295
227 226 225 225 227 208 210 212 212 226 212 239 225 237 226 237 240 248 227 298 314 318 334 367 376 376 364 352 383 358 338 322 320 385 366 355 344 332 308 388 380 368 357 349 345 343 340 335 329 325 326 328 327 329
209 212 216 216 219 227 229 233 239 224 224 230 249 241 242 241 251 315 302 303 319 372 372 362 353 365 370 350 331 332 389 389 391 384 371 361 346 328 308 407 403 397 388 379 378 377 377 388 389 387 380 372 374 367
228 229 228 231 229 218 258 228 221 238 238 253 249 237 232 268 312 292 306 352 365 358 355 367 362 344 329 337 385 382 380 374 363 369 365 359 354 339 318 299 367 400 406 397 396 392 388 384 382 383 382 383 384 386
219 217 252 239 230 232 236 237 237 251 256 250 232 293 293 298 304 345 369 346 350 356 338 324 325 357 371 385 389 384 385 382 379 371 370 360 357 349 337 324 309 298 323 375 390 393 391 388 385 384 381 381 383 379
239 240 241 232 234 237 241 240 250 242 268 275 252 294 304 309 354 365 307 354 334 317 326 363 372 371 375 374 378 378 376 375 377 376 377 374 369 361 356 351 349 347 344 334 313 303 307 316 323 342 372 388 389 392
244 244 251 247 237 241 245 254 263 267 273 297 301 311 315 372 356 350 333 322 333 391 391 385 385 379 375 246 375 370 370 368 370 370 365 365 364 363 362 358 333 341 362 358 353 360 356 344 354 354 349 343 325 327
246 241 250 259 271 254 290 303 299 295 304 303 312 338 360 349 340 323 323 403 403 402 402 394 388 379 375 372 370 370 368 362 361 363 363 366 362 357 353 353 346 344 350 361 352 341 332 313 311 312 305 364 353 337
267 274 282 287 283 300 313 305 298 301 308 312 361 349 340 324 317 374 372 376 380 377 388 387 387 383 379 376 374 373 372 370 371 367 366 367 370 373 372 367 358 346 340 337 341 375 378 374 395 311 374 369 356 345
252 266 304 260 289 282 304 302 315 312 323 345 342 328 313 328 353 349 361 358 374 376 377 374 380 377 375 379 379 378 374 370 372 370 368 371 369 365 363 369 373 370 365 361 356 353 349 345 354 384 368 350 472 469
326 294 265 315 289 292 318 312 312 340 346 326 312 321 343 339 331 326 335 355 362 325 336 370 370 374 372 371 372 375 379 384 382 376 374 364 332 345 356 368 363 356 351 352 345 367 339 317 380 367 376 481 485 476
271 285 276 281 330 321 313 331 344 323 310 344 342 324 318 321 324 342 347 354 254 359 367 369 371 374 370 371 372 284 205 308 374 376 376 373 371 366 371 374 360 355 348 350 410 401 389 342 366 455 468 478 478 470
309 298 331 319 317 342 336 313 326 338 321 315 317 323 327 335 342 343 348 353 361 222 169 368 370 373 372 368 368 192 189 300 368 366 369 371 370 374 381 379 368 363 421 404 392 386 377 382 442 458 476 476 472 470
336 311 353 340 316 323 340 316 313 316 320 324 329 331 334 342 341 348 350 350 357 363 367 371 375 372 369 374 376 201 199 372 373 375 375 377 373 376 378 374 377 424 402 390 378 376 364 437 433 444 466 470 467 467
339 330 330 319 319 321 326 329 332 333 335 337 338 342 347 350 350 354 359 358 361 367 381 373 385 377 381 374 376 373 369 376 375 372 368 368 360 352 369 397 400 405 385 373 364 367 396 430 422 425 456 466 466 466
320 320 314 314 313 318 320 326 334 339 345 347 350 355 361 360 363 363 366 374 380 376 392 378 378 392 381 380 373 378 381 371 359 361 372 378 383 378 398 385 409 387 368 354 376 363 411 427 418 414 425 448 460 457
277 274 271 277 283 296 307 315 346 355 359 358 365 365 366 367 373 382 351 384 399 382 378 383 379 381 377 379 376 368 375 375 372 370 391 395 395 383 379 403 397 367 350 340 377 354 393 417 409 399 397 422 434 438
266 269 268 273 283 296 317 346 355 362 365 369 374 380 210 379 390 395 380 396 241 169 377 385 375 360 374 369 367 366 374 394 392 395 389 377 372 374 393 418 379 351 336 368 372 334 373 417 412 404 394 407 420 430
255 260 265 270 282 301 317 371 374 375 380 388 387 400 392 384 394 398 384 396 398 381 387 386 379 372 370 371 365 387 355 390 389 361 361 365 372 405 375 404 362 339 320 383 368 343 374 396 418 411 409 396 403 415
254 260 265 274 288 311 373 381 388 390 395 405 377 401 407 399 391 227 386 388 396 393 392 393 382 376 368 363 356 345 385 359 362 376 395 413 420 404 378 391 341 324 343 381 365 366 370 365 405 416 401 404 388 397
250 255 263 269 296 384 394 399 409 409 404 407 374 398 406 401 395 407 400 403 402 403 406 400 383 374 370 349 343 374 351 350 357 356 394 415 357 367 391 337 312 330 356 373 368 368 364 357 394 406 414 394 399 387
247 255 264 290 394 402 406 411 412 413 405 417 398 408 410 408 417 445 446 446 441 444 446 445 436 418 390 363 340 377 344 353 362 366 367 356 357 372 354 307 312 333 350 364 368 366 362 347 368 401 407 413 390 399
Wind_Speed
46 51 52 54 52 55 54 56 55 64 58 63 60 64 63 66 66 66 67 70 68 72 75 79 80 84 77 78 77 90 87 85 82 82 84 86 88 91 91 100 104 103 107 107 106 109 105 109 104 107 114 107 105 107
64 58 60 67 68 59 65 66 63 61 55 58 59 58 66 76 78 72 73 71 75 71 87 78 83 81 82 83 85 85 90 87 89 89 92 91 99 101 97 104 105 103 105 101 103 104 109 108 109 111 110 110 106 105
52 59 60 62 65 66 68 61 54 59 70 63 61 56 72 65 71 87 82 74 85 84 82 86 84 85 85 87 90 90 92 94 96 98 99 101 104 101 102 104 105 108 110 104 106 107 106 105 107 106 106 106 105 103
60 64 63 65 66 69 69 69 72 64 62 66 66 72 83 80 73 80 91 80 81 84 89 87 90 90 94 95 96 96 96 96 99 101 103 103 105 104 100 100 101 108 103 105 109 113 110 102 100 99 100 79 79 80
62 69 58 57 57 71 76 74 64 73 78 82 73 71 83 77 90 92 99 95 92 93 91 91 93 96 99 99 98 98 99 100 100 99 100 101 103 107 96 84 84 83 82 80 70 72 75 82 86 88 79 75 75 77
61 58 60 67 62 70 80 81 66 82 74 83 84 99 81 81 86 82 91 95 96 96 96 94 93 94 97 96 97 99 99 100 103 107 107 80 78 79 78 74 78 78 82 82 82 79 74 70 72 73 75 74 77 77
67 63 63 67 71 70 71 74 80 92 84 77 88 85 87 91 92 93 93 93 95 95 96 95 92 91 94 98 102 105 107 109 106 94 83 78 76 78 77 78 76 80 81 82 78 75 73 64 66 67 70 72 73 68
62 66 74 78 80 86 84 84 76 83 83 84 85 88 90 92 93 93 94 96 96 93 93 94 97 98 101 105 107 109 106 100 94 85 79 76 77 83 83 83 82 81 78 76 74 72 70 68 59 59 56 62 60 64
71 73 75 77 79 75 77 77 80 82 83 86 86 87 90 92 94 95 92 92 94 98 102 102 103 105 107 57 110 108 99 91 82 77 79 78 67 71 76 74 76 76 74 72 72 71 71 70 69 62 56 59 63 65
61 65 69 70 71 75 78 79 80 80 81 84 86 87 88 90 90 94 94 97 99 96 101 106 107 110 99 108 99 96 87 80 75 73 55 53 49 64 67 68 68 69 70 71 70 69 68 69 69 70 71 70 69 64
66 69 70 71 72 73 75 79 82 83 83 84 85 87 92 95 96 98 99 101 103 102 105 106 103 94 97 97 93 85 80 78 68 64 64 63 72 71 71 60 61 64 66 66 66 66 62 63 66 66 68 70 71 71
68 70 71 72 74 76 78 80 80 81 83 86 90 93 95 97 100 101 105 105 99 96 101 103 99 95 87 86 80 79 76 72 70 66 66 64 71 69 68 60 57 59 60 61 61 61 61 63 61 65 69 71 74 75
70 72 74 73 76 77 80 81 84 85 89 85 93 94 98 101 103 102 103 107 106 104 104 91 87 84 80 79 74 73 73 69 69 60 58 60 63 65 68 57 56 58 59 61 62 62 63 64 65 67 68 69 70 71
73 77 78 78 81 83 83 84 83 90 89 91 90 92 95 102 104 105 108 106 107 90 88 86 83 81 75 76 73 72 64 62 60 57 53 53 56 60 63 50 51 52 54 57 58 58 59 58 56 54 55 57 57 60
78 82 82 84 85 87 85 89 93 95 98 95 93 94 95 102 106 108 108 95 87 85 83 80 77 76 76 75 66 64 64 62 61 58 56 54 53 54 56 57 53 52 54 50 51 53 54 56 56 56 55 56 57 58
81 83 87 86 89 91 93 95 98 99 100 95 93 112 111 109 106 96 86 87 83 80 81 82 82 74 69 65 62 60 60 58 58 57 55 54 53 52 51 52 54 54 52 54 57 59 58 58 58 60 61 62 63 64
84 85 87 87 90 93 97 98 102 97 112 113 100 110 111 108 94 83 92 80 82 82 81 76 73 70 67 66 62 61 59 58 58 57 57 56 55 54 53 52 53 53 53 52 52 52 51 52 53 56 61 67 70 71
88 90 94 93 89 94 97 107 110 109 113 110 109 106 104 87 84 81 81 82 80 70 67 66 65 63 62 66 60 60 59 57 56 55 56 55 54 54 53 52 52 52 55 56 56 56 57 57 59 60 60 60 59 60
87 86 93 101 108 99 108 104 105 106 102 104 102 95 86 83 81 82 82 63 61 60 59 58 58 58 59 60 60 59 58 58 58 58 56 56 56 56 56 56 56 56 55 57 57 57 57 57 58 58 59 61 62 63
100 102 101 101 101 102 97 99 104 104 100 97 88 84 82 82 81 69 68 66 63 61 57 56 54 54 55 56 56 57 57 57 57 57 56 54 53 53 54 54 54 54 55 54 55 59 58 59 61 57 60 61 60 62
87 95 95 91 97 97 99 99 94 93 90 86 83 82 82 78 72 72 69 68 62 60 58 58 55 54 54 54 54 55 55 56 55 55 55 55 54 53 54 55 56 55 55 55 56 57 58 58 59 57 58 60 57 57
87 90 89 92 93 95 85 88 88 88 83 83 83 80 76 76 75 75 74 69 65 63 62 58 56 54 54 54 53 52 52 52 52 52 52 52 54 54 55 53 53 54 53 52 53 57 56 56 56 57 56 48 47 49
88 88 88 92 77 78 81 84 82 81 83 78 76 79 80 79 78 76 73 69 63 64 62 59 57 55 54 53 53 49 49 51 51 51 52 53 54 54 54 51 50 52 54 53 49 50 51 54 55 47 45 43 41 41
76 80 69 71 73 78 76 78 79 77 78 81 80 80 80 79 77 74 72 69 67 53 51 61 59 56 55 53 53 49 52 54 52 50 50 51 52 54 52 50 49 51 44 45 46 47 48 49 44 42 40 38 37 35
62 65 69 68 70 73 71 75 77 79 80 81 80 80 79 78 76 73 70 68 68 65 63 60 57 55 54 52 52 53 55 52 52 52 50 49 50 54 53 51 49 41 43 45 45 46 47 41 41 39 37 35 33 32
58 59 63 65 67 70 72 75 75 76 78 79 79 79 77 75 74 72 68 66 65 63 60 57 54 54 52 51 51 51 51 51 52 53 52 50 48 52 53 47 46 42 43 44 44 45 44 39 38 37 36 34 31 28
53 56 58 62 66 69 71 73 76 79 80 80 79 78 76 75 73 71 67 65 63 60 58 55 54 51 50 50 50 50 50 51 52 53 53 51 48 46 43 43 39 38 41 42 41 43 40 37 37 38 38 38 34 30
51 55 60 64 67 72 75 77 77 79 79 78 77 76 74 74 73 71 64 65 62 57 55 54 52 51 50 49 49 49 48 49 50 51 49 47 41 37 37 36 34 33 38 39 38 42 39 35 34 36 38 36 33 31
56 59 63 69 74 77 78 76 77 78 78 77 75 73 59 70 68 66 64 63 47 46 54 53 50 50 49 48 47 46 46 45 42 41 41 41 40 39 34 31 28 29 35 37 35 38 36 32 30 29 30 30 29 28
59 63 68 73 78 80 80 77 77 76 75 74 72 68 65 66 66 63 61 59 57 55 52 49 47 47 47 45 44 46 44 39 37 36 39 40 38 34 32 29 28 29 33 35 36 37 35 34 31 29 28 28 29 29
62 67 71 77 82 84 79 77 75 74 72 68 69 67 65 63 62 48 60 58 57 55 51 46 44 44 43 41 38 40 39 39 37 36 36 35 33 29 28 25 27 29 32 33 34 34 34 34 33 30 29 28 28 28
68 73 78 81 85 79 77 75 71 66 64 61 68 65 62 62 63 60 58 56 55 55 51 45 41 42 40 36 35 34 34 37 35 33 32 30 27 28 28 24 26 30 32 34 33 33 33 33 34 32 29 28 27 28
71 77 83 88 79 77 75 71 66 61 59 56 59 59 60 60 59 54 50 48 47 46 45 42 38 37 37 34 31 28 33 33 32 30 29 29 27 27 24 27 30 33 34 34 34 33 33 33 35 32 30 26 26 27
Wind_Direction
260 263 263 266 265 268 269 272 271 277 268 276 271 277 273 279 281 286 285 283 277 277 290 291 286 292 298 294 293 285 289 288 282 284 282 281 278 284 278 281 287 279 279 281 285 280 280 284 279 278 283 288 290 286
253 261 265 268 269 270 274 278 279 281 273 263 280 274 286 289 287 277 276 289 287 286 297 287 298 300 290 286 286 289 286 288 286 287 280 283 278 279 282 285 278 284 284 283 285 284 286 287 287 287 287 285 284 283
259 262 266 268 270 272 274 277 266 270 282 271 286 289 289 282 280 293 290 284 296 296 283 298 297 293 287 284 286 288 289 290 291 291 290 290 285 287 289 289 288 287 287 289 288 286 287 286 284 284 282 281 282 283
255 258 262 264 268 272 275 277 277 280 280 283 280 287 290 288 285 292 296 293 280 284 297 296 294 291 293 292 292 292 292 289 291 290 291 292 289 288 288 288 288 285 287 285 286 286 286 286 286 286 286 288 288 288
257 256 269 273 275 270 272 276 279 283 286 288 287 285 293 289 293 293 292 294 293 293 293 292 292 292 293 294 295 295 293 292 291 290 291 290 289 290 292 292 290 289 291 291 294 292 290 289 288 288 289 289 289 289
258 269 270 266 276 279 276 278 281 282 286 288 289 289 293 289 290 284 290 290 291 292 294 294 293 293 293 293 292 291 292 293 293 295 296 304 298 294 293 292 289 291 288 289 290 292 293 291 289 288 287 287 287 288
266 271 273 274 277 279 281 283 285 286 286 287 287 289 290 291 291 292 292 292 293 293 294 294 293 291 292 291 294 294 294 296 300 303 305 300 297 293 292 291 290 289 290 291 292 292 293 292 290 287 286 286 287 288
273 275 273 275 277 279 281 283 285 282 286 287 289 288 288 290 292 293 294 295 296 296 293 294 293 295 295 293 295 297 301 303 303 304 301 299 297 294 292 291 291 291 292 292 293 293 292 292 291 290 290 287 287 287
264 270 275 276 277 278 282 284 284 285 285 286 288 289 290 292 293 294 295 295 295 295 297 296 297 295 295 300 299 303 303 304 303 301 299 298 297 293 291 291 290 291 290 290 290 290 290 290 290 291 290 287 286 287
275 275 275 277 278 279 280 282 284 286 286 286 289 292 292 292 292 293 295 292 292 297 293 294 295 296 303 303 303 302 306 304 302 301 301 298 298 288 290 290 292 292 288 287 287 288 287 288 288 288 288 288 288 287
273 274 276 278 279 281 282 283 284 287 289 291 291 290 290 291 291 293 294 293 292 292 292 295 300 304 305 304 304 306 304 302 305 301 299 298 292 293 296 292 291 289 288 288 287 286 287 286 286 286 286 286 287 287
274 276 278 279 280 281 282 285 287 288 288 288 290 290 291 291 291 292 292 298 310 309 298 304 306 305 306 305 306 305 304 305 303 303 301 298 294 296 296 295 292 290 290 289 288 288 286 285 285 284 284 285 286 286
277 277 278 280 282 283 284 285 286 288 289 292 291 292 291 292 292 294 295 311 313 311 309 308 308 308 308 306 306 304 303 303 303 305 303 299 297 297 297 293 290 289 289 289 289 288 286 284 283 283 283 283 283 283
280 281 282 284 284 285 287 288 290 287 290 293 295 294 293 293 296 310 313 314 312 310 310 308 308 306 306 305 305 305 305 305 305 305 303 299 297 296 298 296 294 292 288 287 287 287 288 291 292 291 288 286 285 283
283 285 286 287 286 287 290 289 289 292 293 298 295 294 295 306 311 313 312 310 309 309 309 307 306 307 307 306 308 308 306 306 305 305 303 301 299 296 295 297 301 302 303 298 297 296 296 296 295 295 293 292 290 287
284 285 289 288 289 291 292 293 294 298 300 299 295 308 310 312 312 312 311 310 309 309 309 308 308 309 308 308 309 308 306 305 304 303 303 300 299 298 297 296 295 297 299 299 298 297 296 295 294 294 293 292 291 289
288 289 288 289 291 291 293 295 296 295 305 307 304 311 309 310 311 311 309 310 309 308 309 308 309 309 308 307 310 309 308 308 308 307 305 304 303 303 302 301 301 301 300 298 295 295 296 297 297 296 294 291 289 287
290 290 293 291 289 291 294 298 301 303 306 306 305 304 307 312 312 311 310 309 309 309 309 308 308 309 307 307 307 307 308 307 307 306 305 305 305 305 304 304 299 300 301 300 299 298 298 298 297 296 296 296 296 297
291 292 294 295 298 296 302 300 301 304 303 304 304 309 311 312 312 311 311 313 313 312 310 308 307 307 306 306 307 307 307 307 307 307 306 305 304 304 303 303 301 301 302 302 301 299 298 300 302 303 303 291 291 292
294 296 298 299 299 300 298 300 303 302 301 304 311 311 311 311 310 315 316 316 316 314 313 311 309 306 305 304 304 304 304 304 304 304 304 304 304 304 302 301 299 298 299 299 298 296 296 296 295 300 295 294 294 295
293 295 296 298 300 302 300 300 301 302 306 311 310 310 310 312 315 317 319 317 317 317 316 314 312 310 308 305 304 303 303 302 303 303 304 304 304 305 305 305 305 304 304 303 303 304 303 303 302 297 298 299 294 292
290 297 298 294 299 302 299 301 303 308 309 309 309 311 314 315 315 315 316 318 318 315 313 313 312 310 308 307 306 305 304 302 302 302 301 302 305 304 304 306 306 304 303 304 305 304 305 307 302 303 303 301 299 297
297 296 299 299 300 302 303 306 307 307 307 310 312 311 311 313 315 317 318 318 310 316 315 315 313 312 310 309 308 305 309 309 305 304 303 303 302 302 304 306 305 304 305 307 303 303 304 306 305 308 308 307 305 302
294 295 301 301 303 304 306 307 307 309 310 310 310 311 312 314 316 317 318 319 318 313 316 316 315 314 311 310 309 305 310 308 305 306 305 305 306 306 307 308 308 307 306 305 306 307 306 308 314 315 316 314 311 309
302 301 302 304 306 307 307 308 308 310 311 311 311 312 313 315 315 317 317 317 316 317 316 316 313 312 310 310 308 302 308 307 308 307 307 308 308 308 309 309 309 312 310 310 311 312 312 319 318 321 321 320 319 317
304 307 307 309 310 311 311 312 312 312 311 312 313 312 313 314 314 315 316 315 314 316 316 315 314 312 311 310 310 308 308 308 307 307 308 310 310 309 309 311 313 314 313 313 315 316 319 322 322 324 326 326 326 325
311 314 317 317 317 316 316 316 315 313 312 312 312 313 314 314 313 312 315 315 314 316 316 314 313 312 311 309 309 309 308 308 309 309 309 310 310 310 311 312 313 313 311 313 317 318 323 325 327 328 331 330 331 334
319 322 322 323 324 324 323 321 314 313 313 313 313 313 314 312 312 312 315 314 314 315 314 313 313 312 311 310 309 310 310 310 310 310 309 309 312 313 310 312 310 311 311 315 319 319 329 330 328 327 329 330 332 334
325 326 327 327 327 326 323 317 315 314 314 314 313 313 315 312 311 311 313 314 314 318 313 313 312 310 310 310 311 314 312 312 312 311 310 311 313 315 314 316 312 314 313 319 320 316 328 330 328 324 324 327 333 338
328 330 330 329 327 326 324 315 317 316 315 314 314 313 312 312 311 312 313 314 311 311 311 312 310 308 308 310 315 313 314 312 314 314 311 310 312 315 313 314 315 318 315 326 323 319 330 336 331 329 331 333 336 339
329 331 330 330 328 326 318 317 317 317 317 316 314 313 312 312 312 306 314 312 310 309 311 312 308 306 306 310 314 316 312 316 318 319 317 316 315 315 313 312 315 319 322 329 326 329 332 333 336 333 334 336 335 336
331 331 331 330 327 318 317 318 319 318 317 314 314 313 311 312 312 313 313 311 309 307 308 309 304 300 301 307 311 311 312 314 319 323 323 319 320 319 316 318 319 321 331 333 331 331 332 333 338 338 333 334 333 331
330 330 329 327 319 318 318 318 318 318 317 316 314 313 314 314 314 314 314 312 311 311 312 313 310 304 298 299 308 309 310 314 319 323 322 318 322 322 319 319 324 328 332 333 332 332 333 332 338 337 334 330 330 324